Dewpoint
59 58 59 59 59 59 60 60 60 60 61 61 61 61 61 59 61 61 61 60 61 61 62 61 61 60 61 59 60 57 45 10 11 12 13 15 35 52 54 58 58 58 55 29 23 17 17 21 24 24 15 16 17 17 18 18 27 27 16 14 11 13 9 13 9 8 4 10 11 17 19 20 19 22 23 24 22 25 24 24 23 15 12 13 14 13 15 18
58 59 59 59 59 60 59 60 60 60 60 61 61 61 60 60 61 61 59 61 60 62 62 60 59 57 58 59 58 53 26 7 7 9 11 30 51 54 57 57 57 57 50 24 23 20 17 19 24 21 16 16 19 17 20 20 21 19 18 17 9 12 10 16 9 9 9 10 13 17 22 18 18 22 23 19 20 22 21 22 22 18 13 13 14 15 16 15
58 59 58 58 59 59 59 60 60 60 60 60 61 61 61 60 60 58 61 61 61 61 62 60 58 57 57 58 58 51 35 6 3 5 8 47 54 57 55 55 56 55 31 23 27 22 20 22 27 19 19 14 18 17 18 16 17 22 19 11 13 15 14 13 10 9 12 14 19 21 21 20 22 23 25 20 20 22 20 20 19 17 14 12 14 15 15 13
59 59 58 59 59 59 58 59 60 60 60 60 60 61 60 60 61 60 61 60 60 61 61 60 57 57 57 58 58 34 14 3 -2 2 4 46 55 57 56 56 53 48 36 34 31 31 26 24 23 21 22 14 20 19 15 16 11 13 19 15 13 16 7 9 13 14 14 18 18 19 21 22 24 24 22 23 19 20 22 24 22 20 15 12 14 15 16 14
58 58 58 58 58 59 59 59 59 60 60 60 60 61 61 60 61 61 61 59 60 61 60 59 58 58 57 55 50 29 24 4 -1 4 9 52 54 55 54 53 53 40 35 35 22 20 24 21 20 24 19 15 23 23 16 18 17 18 11 13 13 13 6 10 14 15 11 13 17 19 20 21 23 24 23 20 18 16 20 24 25 24 15 13 13 15 16 14
58 58 57 58 58 58 59 59 59 60 60 60 60 60 60 61 61 61 60 60 61 60 60 59 58 58 58 53 31 32 25 5 12 13 47 48 52 55 54 50 47 31 20 17 18 17 12 14 16 21 21 20 18 17 16 21 21 9 11 11 13 10 7 9 15 16 14 16 17 17 19 22 21 22 24 21 18 21 27 27 28 26 17 14 16 16 14 14
58 58 58 58 58 58 58 58 59 58 60 60 59 60 60 59 61 60 60 60 60 59 59 58 57 56 56 49 30 16 12 10 12 16 44 49 49 48 49 44 48 31 22 16 16 15 17 16 20 23 21 19 15 19 20 17 20 15 9 11 12 14 10 13 13 13 11 16 15 16 22 20 22 19 23 23 25 24 23 22 27 26 20 19 16 16 15 14
58 58 58 58 57 58 58 59 59 59 59 60 61 60 60 59 59 59 59 59 58 58 58 58 58 57 54 33 22 20 13 13 11 19 41 48 31 28 37 21 24 26 23 22 18 17 19 16 15 25 20 22 18 19 23 13 17 16 13 17 12 15 15 15 16 16 15 16 17 19 17 19 21 18 23 23 24 19 15 20 21 19 18 17 16 16 16 15
57 57 57 57 57 58 58 58 58 59 60 60 60 61 59 59 59 58 58 59 59 59 57 58 56 53 49 30 18 11 10 9 13 19 24 21 22 21 16 13 17 20 22 23 21 15 16 17 19 19 15 20 25 24 21 13 10 19 15 16 12 15 14 13 15 15 15 15 17 16 17 19 20 21 21 22 20 15 14 15 16 15 15 14 15 15 16 15
57 57 57 57 57 58 57 58 58 59 60 58 59 60 61 59 58 58 58 59 59 58 57 57 56 52 32 24 25 8 10 13 16 21 19 22 22 19 18 17 17 18 18 17 24 23 17 16 14 18 21 21 25 21 21 18 8 23 18 15 12 13 12 11 15 14 13 14 15 14 17 19 21 16 13 21 17 16 13 13 12 13 13 13 15 16 16 15
57 57 57 57 58 58 57 58 57 57 58 58 59 60 59 59 58 57 58 58 59 57 56 56 54 34 23 19 17 11 12 16 22 17 20 23 21 20 18 18 17 16 15 15 18 24 23 18 22 22 27 19 23 21 20 19 24 22 19 19 18 19 10 11 13 13 13 14 16 15 17 18 18 15 14 18 16 13 12 11 11 12 12 12 14 14 15 15
57 57 57 57 58 58 58 58 57 57 56 59 58 58 58 57 58 58 59 57 58 57 57 53 48 22 21 16 14 14 17 16 23 17 20 22 21 22 23 21 16 16 16 17 17 18 26 24 24 25 19 25 20 26 22 29 25 23 17 12 15 20 12 11 13 12 12 12 16 17 15 16 15 14 17 19 13 12 12 10 10 10 11 11 12 13 14 14
57 57 57 57 58 58 58 57 57 57 58 58 58 58 57 57 57 57 57 55 55 56 55 54 42 34 30 20 15 16 17 17 18 18 19 22 22 21 19 17 17 15 15 18 20 22 30 29 25 24 29 24 23 15 21 26 25 24 21 17 15 18 14 11 13 12 10 10 16 16 10 12 14 15 16 18 12 10 10 10 9 10 10 10 11 12 13 14
57 57 57 57 58 58 58 57 57 57 57 59 59 58 58 56 56 56 57 54 55 57 55 50 30 30 23 15 15 15 19 25 17 16 18 22 19 17 19 20 16 14 15 21 23 29 30 28 25 28 32 27 21 29 20 23 24 16 19 20 11 8 13 13 15 16 12 14 16 17 9 9 12 13 16 16 11 10 11 10 9 9 9 9 11 11 12 13
56 57 57 58 58 58 58 58 57 58 59 59 58 58 57 55 56 57 57 54 55 56 55 51 28 26 18 15 15 19 46 17 15 15 18 21 19 13 15 20 16 19 18 18 21 23 24 28 24 23 21 25 26 19 18 17 18 19 11 11 18 6 17 17 22 17 11 14 18 16 11 12 12 12 16 15 11 10 12 11 9 8 8 8 8 10 10 11
56 56 57 57 57 57 57 57 57 57 57 58 57 57 56 56 55 55 57 53 52 54 41 40 33 21 19 15 12 28 15 14 14 16 17 23 21 20 21 20 19 19 20 19 22 20 23 23 21 19 21 23 18 14 15 13 13 18 10 6 6 11 13 13 18 21 20 16 18 16 11 11 10 12 16 16 10 9 11 11 10 8 8 7 7 8 9 10
56 56 57 57 56 56 57 57 57 57 57 57 56 55 56 56 53 56 54 50 44 40 26 25 29 33 20 18 15 12 13 14 16 18 17 23 22 21 19 15 18 20 23 18 18 19 20 18 23 18 23 20 21 18 6 15 10 8 16 6 11 5 10 10 17 20 20 17 15 17 14 12 11 13 15 17 11 9 10 11 11 9 8 7 7 7 7 8
56 57 57 57 57 56 57 57 57 57 56 55 56 55 50 55 51 49 43 44 41 37 38 37 33 21 10 13 9 11 16 16 16 17 18 21 23 22 22 24 22 20 20 15 13 15 20 16 22 12 18 19 20 18 14 5 11 4 6 6 13 14 12 11 11 16 18 19 16 15 14 14 14 14 14 17 14 10 10 11 12 11 9 7 7 6 6 7
56 56 57 57 57 57 57 57 57 56 56 56 56 57 55 51 44 33 35 34 26 20 22 24 21 16 15 13 12 15 17 17 18 22 22 22 23 27 29 27 23 18 18 12 14 19 22 19 20 14 9 16 15 20 17 11 12 9 9 10 11 8 11 13 17 21 17 15 15 14 13 11 11 11 12 15 16 12 11 11 12 12 10 8 7 6 6 6
56 56 57 56 56 56 56 57 57 56 56 49 42 40 39 35 31 22 28 31 21 21 22 24 23 23 20 14 14 15 18 18 18 21 23 23 26 22 21 25 28 24 24 15 18 18 24 13 7 8 15 17 15 18 15 13 15 16 17 13 12 12 14 17 19 21 22 15 13 13 13 13 12 12 11 13 16 15 13 13 13 13 11 9 8 7 7 6
55 56 56 55 55 56 56 56 57 56 54 45 41 30 20 25 21 15 19 20 26 28 26 26 23 19 15 14 15 18 14 14 20 19 23 25 26 21 20 21 26 21 20 24 16 21 22 11 10 18 18 20 17 17 18 18 18 16 17 14 14 16 13 14 14 18 22 12 14 15 13 11 10 12 14 14 16 16 15 14 14 14 13 11 9 8 7 6
54 55 55 55 55 56 56 57 56 55 51 45 42 35 37 30 31 26 21 10 21 28 30 26 24 16 17 16 16 18 15 12 14 18 23 25 23 16 22 22 19 15 21 23 20 17 15 8 13 16 20 19 19 20 18 15 18 16 13 12 10 15 16 17 16 20 18 15 12 15 11 11 11 11 14 14 15 15 16 16 15 15 14 13 11 9 9 8
53 54 55 55 55 56 56 57 54 51 41 39 36 37 37 42 44 42 27 22 20 25 24 24 20 19 16 18 19 20 16 16 14 17 22 25 23 21 23 21 21 20 21 21 17 12 9 11 16 18 20 18 17 19 19 19 19 15 14 12 11 15 7 10 17 18 17 12 12 12 13 13 13 13 12 15 14 15 16 15 16 16 15 14 13 11 10 8
53 53 54 55 56 55 56 54 51 41 40 38 38 37 39 44 42 39 25 17 17 22 25 24 22 21 18 19 21 19 19 20 21 20 24 25 24 23 23 22 18 19 16 19 19 11 9 13 21 21 21 18 18 16 14 14 9 15 15 14 12 10 8 9 10 15 17 18 19 17 14 12 10 9 9 12 13 14 15 14 13 13 15 15 14 11 10 9
53 53 54 55 56 55 55 50 45 39 38 33 38 42 43 42 43 36 25 22 23 20 30 31 24 22 17 21 27 22 21 24 22 23 24 25 26 24 23 23 18 13 16 20 18 16 11 13 20 15 16 17 17 15 13 8 7 12 15 14 14 9 8 9 11 12 11 13 12 12 8 7 7 9 9 10 11 11 12 13 13 14 13 12 10 11 11 12
53 52 53 55 55 55 55 36 35 42 35 32 35 43 43 43 42 38 22 16 7 22 21 14 25 15 20 21 24 25 20 18 23 23 34 24 31 23 23 17 19 11 16 18 15 16 13 19 19 18 16 16 14 11 12 12 8 5 11 15 11 11 12 12 12 9 6 3 7 12 4 7 9 8 8 10 9 9 10 11 11 12 12 12 12 11 11 11
53 52 53 54 55 53 28 30 29 33 23 25 45 44 44 45 43 29 16 13 2 18 15 22 17 16 26 25 24 19 6 10 20 25 23 28 25 29 18 18 21 22 23 19 18 11 21 18 15 14 13 14 8 7 10 13 10 10 11 14 13 13 12 12 12 11 12 16 16 13 9 4 7 8 9 8 9 8 9 10 10 10 11 11 11 12 12 12
53 52 53 55 53 45 23 36 36 30 21 39 44 44 43 43 42 34 18 -11 -13 20 18 20 19 22 26 29 22 18 14 21 16 17 26 29 29 25 22 19 19 20 22 14 3 18 19 16 15 15 12 7 6 8 11 13 10 14 13 15 14 14 13 14 11 11 13 6 9 7 10 5 4 8 8 8 6 6 8 9 10 11 10 11 12 13 12 12
54 53 53 53 53 51 45 39 34 32 40 43 41 43 43 37 33 23 7 -9 1 19 24 19 25 20 24 26 18 23 25 22 16 21 27 24 22 20 20 21 22 22 20 17 13 16 16 13 14 14 8 8 8 9 14 13 10 16 17 19 20 18 17 14 12 11 8 4 4 6 6 2 7 7 7 8 6 7 10 11 12 13 12 12 13 13 13 13
53 54 52 52 47 40 42 37 38 42 42 41 44 42 36 31 23 19 -5 -11 17 2 23 22 19 21 22 20 17 20 17 18 25 25 23 18 15 24 25 26 20 18 14 21 21 19 16 27 25 13 8 8 10 13 16 14 15 19 17 11 16 13 14 13 9 5 2 -1 5 7 7 5 3 6 7 6 13 15 12 12 13 14 14 15 15 14 15 14
53 52 52 51 42 37 33 28 35 42 41 44 43 36 32 22 17 6 -10 9 13 16 23 19 16 25 19 18 15 18 19 20 21 23 15 23 17 22 23 16 24 17 19 20 12 18 19 19 19 22 27 18 14 13 21 18 19 12 10 9 10 8 7 7 7 6 -1 0 5 7 7 6 0 7 8 11 14 13 14 12 12 12 13 15 16 17 16 15
53 52 49 45 44 41 31 28 41 44 42 41 35 29 22 9 7 -4 -6 20 8 15 15 17 19 21 21 18 15 13 17 18 22 23 17 19 17 15 15 14 13 3 10 12 10 15 10 16 19 16 27 16 14 8 13 19 18 15 12 10 5 5 4 -2 -0 -1 -3 1 5 8 7 6 5 8 10 11 13 14 15 14 13 13 14 15 16 17 17 17
52 51 48 45 42 35 35 41 42 43 41 38 31 25 15 11 -9 8 5 10 -0 19 15 16 14 20 20 17 11 16 20 13 19 20 22 20 15 13 18 18 16 7 -0 10 9 6 12 17 18 17 18 21 10 7 6 7 10 11 8 5 3 -0 -6 -4 0 -5 -2 6 8 7 5 5 8 10 12 12 12 13 14 16 16 15 15 17 16 17 17 17
51 46 35 41 39 39 39 40 39 42 38 36 23 14 15 -4 -2 24 9 12 4 22 23 19 20 20 17 14 12 18 13 18 17 15 18 15 15 7 12 16 20 16 13 12 6 5 -0 6 8 16 12 15 10 8 7 7 10 9 9 7 3 3 -1 -1 -7 -2 4 6 7 8 -0 6 3 15 12 14 14 14 15 16 17 17 17 17 17 17 17 17
51 45 40 38 34 35 39 38 40 40 36 29 20 18 3 4 4 2 6 11 12 20 19 24 18 12 12 17 16 19 12 9 18 15 16 11 9 7 8 8 15 17 16 7 8 4 3 5 6 17 14 13 10 14 15 9 9 15 11 13 7 3 9 2 -1 -4 -5 1 3 0 7 8 10 14 14 14 14 13 15 15 16 17 18 17 17 17 16 17
46 41 38 35 35 31 38 40 38 38 31 24 18 5 4 5 -5 9 9 17 19 9 16 14 17 9 13 13 12 13 17 8 12 11 11 13 11 10 11 11 13 17 10 2 7 1 8 1 16 16 12 11 11 17 13 10 3 9 9 3 6 13 9 -1 6 3 1 -3 4 -5 7 11 12 12 14 13 12 12 13 13 13 14 15 15 15 16 16 16
38 37 28 32 28 31 37 40 40 33 27 21 18 3 13 15 12 15 31 19 14 15 5 -0 9 8 6 6 10 11 12 14 12 8 5 12 9 13 17 18 17 18 14 9 5 8 0 4 12 11 10 15 15 18 17 16 14 11 3 7 12 14 12 7 -1 -4 -9 -2 4 3 5 7 7 8 15 12 10 13 14 14 13 14 14 14 15 15 14 15
38 34 30 28 28 37 39 40 36 30 29 22 7 28 19 13 21 24 25 18 19 14 6 1 1 9 6 7 8 8 9 5 15 9 6 12 4 18 18 17 20 16 17 17 7 6 14 5 13 14 14 15 16 14 14 14 18 10 11 13 7 1 2 8 -1 -1 -1 -1 1 4 -0 3 6 12 11 12 10 11 12 12 13 15 15 16 15 15 15 15
33 31 25 25 35 38 38 35 33 29 23 12 10 8 22 19 25 24 25 25 22 13 7 7 1 8 10 6 6 8 7 5 9 11 3 6 6 12 14 19 19 21 22 18 13 15 10 1 8 12 13 13 11 14 9 10 14 15 13 10 12 9 2 0 4 2 4 3 1 8 -1 6 9 12 12 10 10 12 12 14 14 15 16 15 15 14 14 14
27 19 21 31 36 38 36 37 32 25 17 9 16 15 21 19 24 26 26 24 17 11 10 8 11 8 10 12 7 4 9 7 9 8 4 5 10 16 13 18 18 20 21 21 15 19 12 6 1 8 12 13 9 10 10 9 7 7 8 4 7 1 9 7 1 4 4 -7 -5 -4 4 8 12 14 12 11 12 13 13 16 15 15 14 14 13 13 13 13
29 23 23 31 38 38 35 28 21 16 14 17 21 18 24 23 25 24 26 27 27 24 16 9 12 9 8 6 4 9 8 12 11 8 10 10 10 5 18 18 20 17 20 15 14 14 6 10 6 9 8 10 9 13 10 10 11 11 12 11 13 6 3 2 7 -1 -1 1 1 -5 6 9 12 14 12 11 13 13 14 13 13 13 12 12 12 13 13 13
18 10 22 31 38 33 29 17 14 23 17 16 10 23 25 32 21 21 25 24 21 18 20 15 17 13 11 8 7 10 10 9 13 10 10 7 11 10 18 19 23 19 13 12 13 16 10 10 7 8 8 8 9 12 14 12 13 13 12 13 11 6 6 1 1 3 0 1 -5 -3 -3 7 12 13 13 12 12 12 12 12 11 12 12 13 13 14 14 14
21 12 26 34 37 29 21 9 23 19 15 20 23 24 23 24 17 20 21 21 19 19 18 18 18 17 16 12 14 12 11 5 12 9 11 13 12 17 22 22 19 18 16 14 14 14 24 5 2 7 9 8 11 12 13 13 11 9 9 10 9 5 9 11 6 2 3 -2 -2 -4 -1 7 10 15 13 12 12 12 12 13 14 14 14 14 14 15 14 15
24 23 27 31 33 31 17 3 5 10 15 22 22 23 23 24 21 19 21 22 17 16 17 20 17 17 12 19 14 9 12 3 11 10 11 17 16 24 24 23 22 20 14 13 8 14 5 11 6 2 4 7 9 9 10 12 9 8 7 9 8 3 1 -1 -1 -4 2 4 7 4 5 8 11 15 12 11 12 12 13 14 14 14 15 15 15 15 15 16
23 23 26 28 30 23 12 20 12 8 13 18 15 16 17 19 21 21 21 20 21 16 15 15 17 18 17 20 18 21 19 6 7 11 10 12 15 18 18 18 16 21 23 25 27 24 7 10 5 1 0 2 3 4 5 4 4 9 8 9 8 5 4 4 3 -0 1 4 5 -1 5 8 9 11 11 11 12 13 14 14 15 15 15 15 15 16 16 16
10 -0 19 21 23 24 24 24 22 18 14 12 7 10 17 15 19 22 22 22 21 21 19 18 20 20 19 17 15 16 16 18 9 7 7 8 9 20 22 15 19 23 26 26 23 13 5 9 9 9 9 7 9 10 14 17 10 6 7 7 6 5 6 1 4 0 5 4 6 7 8 9 9 10 11 12 13 13 14 14 14 15 15 15 16 16 16 17
17 4 12 8 17 17 18 21 21 15 9 16 1 8 7 12 13 11 22 19 21 18 20 19 19 12 12 12 11 15 17 17 16 10 9 7 8 14 18 21 20 26 29 27 21 7 3 4 8 10 10 12 11 10 11 13 10 10 9 12 7 6 6 7 7 9 10 5 7 9 9 9 10 11 11 13 13 14 14 14 14 15 15 15 16 16 21 17
10 14 17 15 6 11 2 5 22 19 17 13 3 13 10 14 13 5 13 19 24 22 13 10 18 17 14 13 11 5 12 17 12 7 8 7 9 11 12 20 22 24 24 16 13 9 4 4 5 5 6 10 11 11 11 11 11 10 11 11 11 8 6 6 8 11 9 8 8 9 10 9 10 11 12 13 14 14 14 15 15 15 15 15 16 16 17 17
22 21 18 21 9 16 10 13 23 21 19 17 22 13 7 15 9 12 14 16 17 17 15 4 6 17 17 18 12 8 15 1 3 5 10 8 8 7 7 9 22 24 16 13 12 2 8 7 4 5 8 11 12 12 13 13 12 12 12 13 13 11 9 10 11 11 10 10 10 10 10 10 11 12 13 14 15 15 15 15 15 15 15 16 16 17 17 18
17 15 11 18 20 18 18 19 18 15 13 17 4 6 10 14 11 15 17 14 4 11 20 8 13 17 19 19 14 7 12 9 5 5 7 9 6 8 6 11 14 22 17 13 9 10 9 8 12 6 3 9 10 11 9 12 11 10 10 11 11 12 12 11 9 11 11 10 11 11 11 11 13 14 14 15 15 15 15 15 15 15 15 17 17 17 18 17
27 22 22 13 6 11 18 17 17 15 9 10 6 8 14 17 14 17 12 14 7 9 18 13 16 21 21 19 18 15 18 16 11 13 14 12 11 16 10 8 18 15 15 12 8 10 6 7 -1 0 4 9 9 9 9 9 9 9 9 10 11 10 7 10 9 12 8 10 10 8 8 12 14 14 15 14 14 14 14 14 15 15 16 17 18 18 18 18
27 28 27 20 8 21 15 12 11 8 3 15 14 10 14 15 19 18 12 18 23 22 22 20 20 18 17 18 17 19 20 21 20 21 20 17 19 19 17 14 19 18 14 10 7 7 4 2 4 0 5 8 9 8 8 9 9 8 6 10 11 12 11 11 12 13 12 12 8 9 11 13 13 15 14 14 14 14 14 15 15 16 17 18 18 18 18 18